Data No, UTC Date,UTC Time,Latitude,Longitude,Course(deg),Temp(degC),Sal(psu)
551,2018/7/9,9:10,42-36.97N,141-37.10E,208,13.563,29.5521
552,2018/7/9,9:11,42-36.74N,141-36.94E,205,13.594,29.6883
553,2018/7/9,9:12,42-36.48N,141-36.88E,184,13.643,29.9129
554,2018/7/9,9:13,42-36.20N,141-36.86E,183,13.717,30.0942
555,2018/7/9,9:14,42-35.91N,141-36.83E,184,13.556,30.5343
556,2018/7/9,9:15,42-35.62N,141-36.80E,183,14.04,30.7383
557,2018/7/9,9:16,42-35.31N,141-36.79E,178,14.329,30.7787
558,2018/7/9,9:17,42-35.05N,141-36.92E,152,14.529,31.0557
559,2018/7/9,9:18,42-34.79N,141-37.13E,148,14.192,31.0786
560,2018/7/9,9:19,42-34.53N,141-37.35E,147,14.368,31.2988
561,2018/7/9,9:20,42-34.26N,141-37.58E,148,14.522,31.3378
562,2018/7/9,9:21,42-33.98N,141-37.81E,148,14.862,31.2274
563,2018/7/9,9:22,42-33.70N,141-38.03E,149,14.68,30.9475
564,2018/7/9,9:23,42-33.43N,141-38.25E,149,14.44,30.8644
565,2018/7/9,9:24,42-33.14N,141-38.48E,149,14.497,31.034
566,2018/7/9,9:25,42-32.85N,141-38.70E,149,13.902,30.9076
567,2018/7/9,9:26,42-32.56N,141-38.92E,150,14.02,31.3709
568,2018/7/9,9:27,42-32.26N,141-39.16E,150,14.492,31.3484
569,2018/7/9,9:28,42-31.97N,141-39.38E,149,14.552,30.9227
570,2018/7/9,9:29,42-31.68N,141-39.61E,150,14.283,30.6885
571,2018/7/9,9:30,42-31.38N,141-39.85E,149,14.189,30.6894
572,2018/7/9,9:31,42-31.07N,141-40.09E,150,14.18,30.9503
573,2018/7/9,9:32,42-30.78N,141-40.31E,150,14.234,31.0549
574,2018/7/9,9:33,42-30.47N,141-40.55E,150,14.246,31.0704
575,2018/7/9,9:34,42-30.17N,141-40.78E,150,14.275,31.0618
576,2018/7/9,9:35,42-29.86N,141-41.02E,150,14.175,31.1102
577,2018/7/9,9:36,42-29.55N,141-41.26E,150,14.15,31.2875
578,2018/7/9,9:37,42-29.24N,141-41.49E,150,14.189,31.3943
579,2018/7/9,9:38,42-28.93N,141-41.73E,150,14.143,31.4802
580,2018/7/9,9:39,42-28.66N,141-42.03E,132,14.099,31.5589
581,2018/7/9,9:40,42-28.44N,141-42.40E,128,14.104,31.6441
582,2018/7/9,9:41,42-28.21N,141-42.78E,128,14.151,31.6909
583,2018/7/9,9:42,42-27.98N,141-43.17E,128,14.209,31.6393
584,2018/7/9,9:43,42-27.76N,141-43.55E,129,14.015,31.596
585,2018/7/9,9:44,42-27.52N,141-43.93E,129,14.015,31.6662
586,2018/7/9,9:45,42-27.28N,141-44.31E,129,14.025,31.701
587,2018/7/9,9:46,42-27.05N,141-44.70E,129,14.099,31.704
588,2018/7/9,9:47,42-26.81N,141-45.08E,129,14.137,31.7277
589,2018/7/9,9:48,42-26.57N,141-45.47E,129,14.196,31.7486
590,2018/7/9,9:49,42-26.34N,141-45.85E,129,14.098,31.7317
591,2018/7/9,9:50,42-26.10N,141-46.25E,129,14.193,31.7045
592,2018/7/9,9:51,42-25.86N,141-46.64E,129,14.341,31.616
593,2018/7/9,9:52,42-25.62N,141-47.02E,129,14.389,31.3635
594,2018/7/9,9:53,42-25.39N,141-47.40E,129,14.275,31.2477
595,2018/7/9,9:54,42-25.15N,141-47.79E,129,14.149,31.2907
596,2018/7/9,9:55,42-24.92N,141-48.17E,129,14.063,31.3635
597,2018/7/9,9:56,42-24.68N,141-48.56E,129,14.095,31.4421
598,2018/7/9,9:57,42-24.44N,141-48.94E,130,14.124,31.4389
599,2018/7/9,9:58,42-24.19N,141-49.33E,130,14.1,31.4502
600,2018/7/9,9:59,42-23.95N,141-49.71E,130,14.058,31.4436
601,2018/7/9,10:00,42-23.72N,141-50.09E,130,14.347,31.4705
602,2018/7/9,10:01,42-23.48N,141-50.47E,130,14.456,31.3489
603,2018/7/9,10:02,42-23.23N,141-50.85E,130,14.532,31.154
604,2018/7/9,10:03,42-22.98N,141-51.24E,130,14.339,30.8054
605,2018/7/9,10:04,42-22.75N,141-51.62E,130,14.514,30.9515
606,2018/7/9,10:05,42-22.52N,141-52.01E,125,14.545,30.9636
607,2018/7/9,10:06,42-22.33N,141-52.44E,119,14.198,31.0085
608,2018/7/9,10:07,42-22.15N,141-52.87E,118,14.22,31.2642
609,2018/7/9,10:08,42-21.97N,141-53.32E,118,14.191,31.2691
610,2018/7/9,10:09,42-21.80N,141-53.76E,118,14.168,31.278
611,2018/7/9,10:10,42-21.62N,141-54.20E,118,14.18,31.2374
612,2018/7/9,10:11,42-21.44N,141-54.64E,118,14.113,31.1967
613,2018/7/9,10:12,42-21.27N,141-55.08E,118,13.932,31.2691
614,2018/7/9,10:13,42-21.09N,141-55.53E,118,14.15,31.3567
615,2018/7/9,10:14,42-20.91N,141-55.98E,118,14.354,31.2912
616,2018/7/9,10:15,42-20.73N,141-56.42E,118,14.283,31.0247
617,2018/7/9,10:16,42-20.56N,141-56.86E,118,14.305,30.9414
618,2018/7/9,10:17,42-20.38N,141-57.30E,118,14.371,30.992
619,2018/7/9,10:18,42-20.20N,141-57.74E,118,14.328,30.9213
620,2018/7/9,10:19,42-20.03N,141-58.19E,117,14.364,30.9598
621,2018/7/9,10:20,42-19.85N,141-58.64E,117,14.281,31.0188
622,2018/7/9,10:21,42-19.68N,141-59.08E,117,14.259,31.0989
623,2018/7/9,10:22,42-19.51N,141-59.52E,117,14.366,31.151
624,2018/7/9,10:23,42-19.33N,141-59.95E,117,14.293,30.9317
625,2018/7/9,10:24,42-19.16N,142-00.40E,118,14.231,30.8893
626,2018/7/9,10:25,42-18.98N,142-00.84E,117,14.204,30.9913
627,2018/7/9,10:26,42-18.81N,142-01.28E,118,14.261,31.0355
628,2018/7/9,10:27,42-18.63N,142-01.74E,117,14.333,30.9734
629,2018/7/9,10:28,42-18.45N,142-02.18E,118,14.438,30.7957
630,2018/7/9,10:29,42-18.28N,142-02.61E,118,14.388,30.5692
631,2018/7/9,10:30,42-18.09N,142-03.05E,119,14.475,30.4985
632,2018/7/9,10:31,42-17.90N,142-03.49E,120,14.479,30.3488
633,2018/7/9,10:32,42-17.71N,142-03.93E,120,14.449,30.1855
634,2018/7/9,10:33,42-17.52N,142-04.35E,120,14.412,30.136
635,2018/7/9,10:34,42-17.34N,142-04.79E,120,14.078,30.0879
636,2018/7/9,10:35,42-17.15N,142-05.22E,120,14.161,30.4744
637,2018/7/9,10:36,42-16.96N,142-05.67E,119,14.107,30.6223
638,2018/7/9,10:37,42-16.77N,142-06.11E,120,14.042,30.7518
639,2018/7/9,10:38,42-16.58N,142-06.54E,120,13.768,31.0482
640,2018/7/9,10:39,42-16.40N,142-06.98E,120,13.803,31.3232
641,2018/7/9,10:40,42-16.21N,142-07.41E,120,13.616,31.388
642,2018/7/9,10:41,42-16.02N,142-07.86E,120,13.621,31.5499
643,2018/7/9,10:42,42-15.83N,142-08.30E,120,13.579,31.6883
644,2018/7/9,10:43,42-15.64N,142-08.73E,120,13.666,31.893
645,2018/7/9,10:44,42-15.45N,142-09.18E,120,13.756,32.0311
646,2018/7/9,10:45,42-15.26N,142-09.62E,120,13.77,32.1523
647,2018/7/9,10:46,42-15.07N,142-10.07E,120,13.746,32.1425
648,2018/7/9,10:47,42-14.88N,142-10.51E,120,13.528,32.0333
649,2018/7/9,10:48,42-14.68N,142-10.94E,120,13.177,32.0303
650,2018/7/9,10:49,42-14.49N,142-11.37E,120,13.19,32.2817
651,2018/7/9,10:50,42-14.30N,142-11.81E,120,13.125,32.3971
652,2018/7/9,10:51,42-14.10N,142-12.25E,121,13.336,32.4447
653,2018/7/9,10:52,42-13.90N,142-12.69E,121,13.437,32.4775
654,2018/7/9,10:53,42-13.71N,142-13.13E,121,13.402,32.5009
655,2018/7/9,10:54,42-13.51N,142-13.57E,120,13.34,32.5186
656,2018/7/9,10:55,42-13.31N,142-14.02E,120,13.417,32.5385
657,2018/7/9,10:56,42-13.12N,142-14.45E,120,13.226,32.5996
658,2018/7/9,10:57,42-12.92N,142-14.90E,121,13.194,32.6424
659,2018/7/9,10:58,42-12.73N,142-15.34E,120,13.186,32.7176
660,2018/7/9,10:59,42-12.53N,142-15.78E,120,13.32,32.7972
661,2018/7/9,11:00,42-12.34N,142-16.23E,120,13.079,32.8489
662,2018/7/9,11:01,42-12.15N,142-16.67E,120,13.167,32.7864
663,2018/7/9,11:02,42-11.96N,142-17.11E,119,13.103,32.7747
664,2018/7/9,11:03,42-11.77N,142-17.56E,119,13.092,32.8023
665,2018/7/9,11:04,42-11.59N,142-18.00E,118,13.216,32.7828
666,2018/7/9,11:05,42-11.41N,142-18.45E,118,13.32,32.7565
667,2018/7/9,11:06,42-11.22N,142-18.89E,118,13.08,32.7516
668,2018/7/9,11:07,42-11.04N,142-19.35E,118,13.151,32.7781
669,2018/7/9,11:08,42-10.87N,142-19.79E,117,13.301,32.7437
670,2018/7/9,11:09,42-10.70N,142-20.23E,118,12.779,32.7195
671,2018/7/9,11:10,42-10.52N,142-20.67E,118,12.871,32.4467
672,2018/7/9,11:11,42-10.34N,142-21.11E,118,12.761,32.1939
673,2018/7/9,11:12,42-10.16N,142-21.55E,118,13.035,32.1106
674,2018/7/9,11:13,42-09.98N,142-22.00E,119,13.003,32.1927
675,2018/7/9,11:14,42-09.80N,142-22.42E,119,12.981,32.2252
676,2018/7/9,11:15,42-09.62N,142-22.86E,119,12.922,32.2321
677,2018/7/9,11:16,42-09.43N,142-23.29E,119,12.852,32.2471
678,2018/7/9,11:17,42-09.24N,142-23.73E,120,12.89,32.2506
679,2018/7/9,11:18,42-09.05N,142-24.16E,120,12.822,32.243
680,2018/7/9,11:19,42-08.87N,142-24.59E,120,12.81,32.2392
681,2018/7/9,11:20,42-08.68N,142-25.03E,119,12.919,32.2442
682,2018/7/9,11:21,42-08.50N,142-25.46E,119,12.988,32.2353
683,2018/7/9,11:22,42-08.31N,142-25.90E,120,13.53,32.1914
684,2018/7/9,11:23,42-08.11N,142-26.34E,120,13.658,31.8425
685,2018/7/9,11:24,42-07.92N,142-26.78E,120,13.58,31.4175
686,2018/7/9,11:25,42-07.73N,142-27.21E,120,13.405,31.45
687,2018/7/9,11:26,42-07.54N,142-27.64E,119,13.56,31.5913
688,2018/7/9,11:27,42-07.36N,142-28.08E,119,13.83,31.5689
689,2018/7/9,11:28,42-07.17N,142-28.54E,118,13.77,31.7868
690,2018/7/9,11:29,42-06.99N,142-28.98E,118,13.652,32.3191
691,2018/7/9,11:30,42-06.81N,142-29.41E,119,13.533,32.6373
692,2018/7/9,11:31,42-06.63N,142-29.86E,118,13.325,32.8444
693,2018/7/9,11:32,42-06.44N,142-30.30E,118,13.41,32.9859
694,2018/7/9,11:33,42-06.26N,142-30.75E,119,13.562,33.114
695,2018/7/9,11:34,42-06.07N,142-31.19E,119,13.692,33.2022
696,2018/7/9,11:35,42-05.89N,142-31.62E,119,13.771,33.2136
697,2018/7/9,11:36,42-05.71N,142-32.06E,119,13.689,33.1836
698,2018/7/9,11:37,42-05.52N,142-32.51E,119,13.641,33.1992
699,2018/7/9,11:38,42-05.33N,142-32.95E,119,13.627,33.2356
700,2018/7/9,11:39,42-05.15N,142-33.39E,119,13.685,33.2446
701,2018/7/9,11:40,42-04.96N,142-33.83E,119,13.721,33.2363
702,2018/7/9,11:41,42-04.77N,142-34.27E,119,13.644,33.2276
703,2018/7/9,11:42,42-04.59N,142-34.71E,119,13.689,33.2359
704,2018/7/9,11:43,42-04.40N,142-35.15E,119,13.737,33.2185
705,2018/7/9,11:44,42-04.21N,142-35.58E,119,13.751,33.1719
706,2018/7/9,11:45,42-04.03N,142-36.02E,119,13.784,33.1584
707,2018/7/9,11:46,42-03.84N,142-36.47E,119,13.729,33.1648
708,2018/7/9,11:47,42-03.65N,142-36.91E,120,13.675,33.1899
709,2018/7/9,11:48,42-03.47N,142-37.35E,118,13.563,33.1958
710,2018/7/9,11:49,42-03.30N,142-37.80E,116,13.351,33.1836
711,2018/7/9,11:50,42-03.12N,142-38.25E,116,13.036,33.1559
712,2018/7/9,11:51,42-02.96N,142-38.70E,116,12.737,33.099
713,2018/7/9,11:52,42-02.79N,142-39.15E,116,12.432,33.0142
714,2018/7/9,11:53,42-02.61N,142-39.61E,116,12.657,32.9351
715,2018/7/9,11:54,42-02.45N,142-40.05E,116,13.084,32.9443
716,2018/7/9,11:55,42-02.28N,142-40.50E,116,13.333,33.0472
717,2018/7/9,11:56,42-02.11N,142-40.95E,116,13.452,33.1308
718,2018/7/9,11:57,42-01.94N,142-41.41E,116,13.478,33.1747
719,2018/7/9,11:58,42-01.77N,142-41.86E,116,13.542,33.2049
720,2018/7/9,11:59,42-01.61N,142-42.31E,115,13.202,33.2087
721,2018/7/9,12:00,42-01.45N,142-42.76E,115,12.944,33.1515
722,2018/7/9,12:01,42-01.28N,142-43.22E,115,12.486,33.048
723,2018/7/9,12:02,42-01.12N,142-43.67E,115,12.241,32.9085
724,2018/7/9,12:03,42-00.96N,142-44.14E,115,12.017,32.7749
725,2018/7/9,12:04,42-00.80N,142-44.59E,114,11.743,32.6596
726,2018/7/9,12:05,42-00.64N,142-45.05E,114,11.477,32.527
727,2018/7/9,12:06,42-00.48N,142-45.50E,115,11.499,32.3633
728,2018/7/9,12:07,42-00.32N,142-45.96E,114,11.501,32.1381
729,2018/7/9,12:08,42-00.16N,142-46.42E,114,11.515,32.0163
730,2018/7/9,12:09,42-00.01N,142-46.88E,114,11.476,31.8846
731,2018/7/9,12:10,41-59.85N,142-47.35E,114,11.539,31.7985
732,2018/7/9,12:11,41-59.69N,142-47.80E,114,11.622,31.7095
733,2018/7/9,12:12,41-59.53N,142-48.26E,114,11.671,31.6231
734,2018/7/9,12:13,41-59.37N,142-48.73E,114,11.667,31.5721
735,2018/7/9,12:14,41-59.22N,142-49.19E,114,11.732,31.497
736,2018/7/9,12:15,41-59.06N,142-49.65E,115,11.755,31.4312
737,2018/7/9,12:16,41-58.89N,142-50.11E,116,11.865,31.3561
738,2018/7/9,12:17,41-58.72N,142-50.57E,116,11.887,31.2555
739,2018/7/9,12:18,41-58.55N,142-51.02E,116,11.819,31.1905
740,2018/7/9,12:19,41-58.38N,142-51.48E,116,11.826,31.1626
741,2018/7/9,12:20,41-58.21N,142-51.94E,116,11.808,31.1591
742,2018/7/9,12:21,41-58.04N,142-52.40E,116,11.797,31.1626
743,2018/7/9,12:22,41-57.87N,142-52.85E,116,11.871,31.1762
744,2018/7/9,12:23,41-57.70N,142-53.31E,116,11.858,31.1839
745,2018/7/9,12:24,41-57.52N,142-53.77E,116,11.822,31.1717
746,2018/7/9,12:25,41-57.34N,142-54.24E,116,11.876,31.1601
747,2018/7/9,12:26,41-57.17N,142-54.69E,117,11.869,31.1463
748,2018/7/9,12:27,41-57.00N,142-55.14E,117,11.805,31.1225
749,2018/7/9,12:28,41-56.82N,142-55.60E,117,11.796,31.1057
750,2018/7/9,12:29,41-56.65N,142-56.05E,117,11.877,31.0971
751,2018/7/9,12:30,41-56.47N,142-56.51E,117,11.899,31.0884
752,2018/7/9,12:31,41-56.29N,142-56.97E,117,11.887,31.0818
753,2018/7/9,12:32,41-56.11N,142-57.43E,117,11.821,31.0723
754,2018/7/9,12:33,41-55.93N,142-57.89E,117,11.857,31.0667
755,2018/7/9,12:34,41-55.75N,142-58.34E,118,11.953,31.0615
756,2018/7/9,12:35,41-55.57N,142-58.79E,118,11.947,31.0576
757,2018/7/9,12:36,41-55.39N,142-59.24E,118,11.916,31.0448
758,2018/7/9,12:37,41-55.21N,142-59.70E,118,11.978,31.0343
759,2018/7/9,12:38,41-55.02N,143-00.15E,118,11.998,31.0221
760,2018/7/9,12:39,41-54.84N,143-00.61E,118,12.038,31.0122
761,2018/7/9,12:40,41-54.66N,143-01.05E,118,12.108,31.0008
762,2018/7/9,12:41,41-54.47N,143-01.51E,118,12.095,30.9968
763,2018/7/9,12:42,41-54.28N,143-01.96E,118,12.172,31.0363
764,2018/7/9,12:43,41-54.09N,143-02.41E,119,12.069,31.125
765,2018/7/9,12:44,41-53.91N,143-02.85E,119,12.045,31.2679
766,2018/7/9,12:45,41-53.72N,143-03.30E,119,11.832,31.4117
767,2018/7/9,12:46,41-53.53N,143-03.74E,119,11.754,31.5027
768,2018/7/9,12:47,41-53.34N,143-04.18E,119,11.787,31.549
769,2018/7/9,12:48,41-53.14N,143-04.63E,119,11.765,31.584
770,2018/7/9,12:49,41-52.95N,143-05.07E,120,11.736,31.5954
771,2018/7/9,12:50,41-52.76N,143-05.50E,120,11.731,31.6011
772,2018/7/9,12:51,41-52.56N,143-05.94E,121,11.818,31.6043
773,2018/7/9,12:52,41-52.36N,143-06.37E,121,11.743,31.6054
774,2018/7/9,12:53,41-52.16N,143-06.82E,121,11.73,31.6182
775,2018/7/9,12:54,41-51.96N,143-07.24E,121,11.744,31.6426
776,2018/7/9,12:55,41-51.76N,143-07.67E,121,11.722,31.6582
777,2018/7/9,12:56,41-51.56N,143-08.10E,122,11.679,31.6654
778,2018/7/9,12:57,41-51.35N,143-08.54E,123,11.716,31.66
779,2018/7/9,12:58,41-51.15N,143-08.97E,122,11.841,31.6493
780,2018/7/9,12:59,41-50.95N,143-09.38E,122,12.029,31.6065
781,2018/7/9,13:00,41-50.75N,143-09.81E,121,12.137,31.552
782,2018/7/9,13:01,41-50.55N,143-10.25E,120,12.083,31.4712
783,2018/7/9,13:02,41-50.38N,143-10.68E,118,12.136,31.4051
784,2018/7/9,13:03,41-50.21N,143-11.12E,115,12.172,30.9497
785,2018/7/9,13:04,41-50.07N,143-11.58E,111,12.245,30.7246
786,2018/7/9,13:05,41-49.95N,143-12.05E,109,12.273,30.797
787,2018/7/9,13:06,41-49.84N,143-12.52E,105,12.24,30.5337
788,2018/7/9,13:07,41-49.75N,143-12.99E,103,12.161,30.2307
789,2018/7/9,13:08,41-49.67N,143-13.47E,102,12.103,30.2658
790,2018/7/9,13:09,41-49.59N,143-13.95E,102,12.072,30.3995
791,2018/7/9,13:10,41-49.51N,143-14.43E,102,12.146,30.5522
792,2018/7/9,13:11,41-49.42N,143-14.91E,102,12.174,30.5294
793,2018/7/9,13:12,41-49.34N,143-15.39E,102,12.017,30.6836
794,2018/7/9,13:13,41-49.26N,143-15.86E,102,12.051,31.0338
795,2018/7/9,13:14,41-49.18N,143-16.34E,102,11.916,31.3184
796,2018/7/9,13:15,41-49.10N,143-16.83E,102,11.771,31.762
797,2018/7/9,13:16,41-49.01N,143-17.31E,103,11.805,32.0263
798,2018/7/9,13:17,41-48.93N,143-17.79E,102,11.862,32.2063
799,2018/7/9,13:18,41-48.85N,143-18.26E,102,12.179,32.2973
800,2018/7/9,13:19,41-48.77N,143-18.75E,102,12.303,32.4042
801,2018/7/9,13:20,41-48.69N,143-19.22E,102,12.3,32.4786
802,2018/7/9,13:21,41-48.62N,143-19.70E,100,12.268,32.5201
803,2018/7/9,13:22,41-48.65N,143-20.17E,72,12.276,32.5453
804,2018/7/9,13:23,41-48.87N,143-20.48E,37,12.275,32.5584
805,2018/7/9,13:24,41-49.16N,143-20.71E,28,12.271,32.5732
806,2018/7/9,13:25,41-49.47N,143-20.94E,28,12.294,32.5858
807,2018/7/9,13:26,41-49.79N,143-21.16E,27,12.287,32.5896
808,2018/7/9,13:27,41-50.11N,143-21.39E,28,12.284,32.5947
809,2018/7/9,13:28,41-50.42N,143-21.62E,28,12.303,32.6003
810,2018/7/9,13:29,41-50.73N,143-21.84E,28,12.302,32.5996
811,2018/7/9,13:30,41-51.04N,143-22.08E,30,12.331,32.6021
812,2018/7/9,13:31,41-51.34N,143-22.33E,31,12.35,32.6073
813,2018/7/9,13:32,41-51.65N,143-22.57E,31,12.332,32.6138
814,2018/7/9,13:33,41-51.95N,143-22.82E,31,12.321,32.6206
815,2018/7/9,13:34,41-52.26N,143-23.08E,31,12.341,32.6253
816,2018/7/9,13:35,41-52.56N,143-23.34E,32,12.32,32.6267
817,2018/7/9,13:36,41-52.86N,143-23.59E,32,12.331,32.63
818,2018/7/9,13:37,41-53.17N,143-23.85E,32,12.376,32.6322
819,2018/7/9,13:38,41-53.47N,143-24.12E,33,12.372,32.6353
820,2018/7/9,13:39,41-53.78N,143-24.39E,32,12.366,32.6371
821,2018/7/9,13:40,41-54.09N,143-24.65E,32,12.377,32.6343
822,2018/7/9,13:41,41-54.38N,143-24.92E,33,12.397,32.6315
823,2018/7/9,13:42,41-54.69N,143-25.18E,33,12.423,32.6293
824,2018/7/9,13:43,41-54.99N,143-25.44E,31,12.457,32.6285
825,2018/7/9,13:44,41-55.30N,143-25.69E,31,12.434,32.629
826,2018/7/9,13:45,41-55.62N,143-25.95E,31,12.459,32.6292
827,2018/7/9,13:46,41-55.92N,143-26.19E,30,12.491,32.6302
828,2018/7/9,13:47,41-56.23N,143-26.44E,31,12.502,32.6324
829,2018/7/9,13:48,41-56.54N,143-26.69E,31,12.508,32.63
830,2018/7/9,13:49,41-56.85N,143-26.94E,30,12.547,32.622
831,2018/7/9,13:50,41-57.16N,143-27.19E,30,12.526,32.6193
832,2018/7/9,13:51,41-57.48N,143-27.44E,30,12.547,32.6212
833,2018/7/9,13:52,41-57.79N,143-27.68E,29,12.617,32.6262
834,2018/7/9,13:53,41-58.10N,143-27.93E,31,12.697,32.6326
835,2018/7/9,13:54,41-58.42N,143-28.18E,30,12.71,32.6397
836,2018/7/9,13:55,41-58.73N,143-28.43E,30,12.756,32.6409
837,2018/7/9,13:56,41-59.04N,143-28.67E,30,12.735,32.6432
838,2018/7/9,13:57,41-59.35N,143-28.91E,30,12.7,32.6406
839,2018/7/9,13:58,41-59.66N,143-29.16E,29,12.656,32.6232
840,2018/7/9,13:59,41-59.98N,143-29.41E,30,12.589,32.6085
841,2018/7/9,14:00,42-00.30N,143-29.65E,30,12.424,32.592
842,2018/7/9,14:01,42-00.62N,143-29.90E,30,12.344,32.5412
843,2018/7/9,14:02,42-00.93N,143-30.13E,29,12.239,32.4753
844,2018/7/9,14:03,42-01.24N,143-30.38E,30,12.159,32.4106
845,2018/7/9,14:04,42-01.55N,143-30.64E,31,12.28,32.363
846,2018/7/9,14:05,42-01.86N,143-30.90E,31,12.362,32.3667
847,2018/7/9,14:06,42-02.17N,143-31.16E,32,12.217,32.3878
848,2018/7/9,14:07,42-02.49N,143-31.42E,31,12.381,32.3611
849,2018/7/9,14:08,42-02.80N,143-31.68E,31,12.335,32.3996
850,2018/7/9,14:09,42-03.11N,143-31.93E,31,12.463,32.3951
851,2018/7/9,14:10,42-03.43N,143-32.19E,31,12.502,32.4531
852,2018/7/9,14:11,42-03.74N,143-32.45E,32,12.282,32.4719
853,2018/7/9,14:12,42-04.05N,143-32.71E,30,12.217,32.3821
854,2018/7/9,14:13,42-04.37N,143-32.97E,31,12.214,32.3008
855,2018/7/9,14:14,42-04.69N,143-33.22E,31,12.194,32.2713
856,2018/7/9,14:15,42-05.00N,143-33.48E,30,12.243,32.2554
857,2018/7/9,14:16,42-05.33N,143-33.74E,30,12.578,32.2802
858,2018/7/9,14:17,42-05.64N,143-33.99E,30,12.935,32.3197
859,2018/7/9,14:18,42-05.96N,143-34.24E,31,13,32.4442
860,2018/7/9,14:19,42-06.27N,143-34.50E,31,12.982,32.5197
861,2018/7/9,14:20,42-06.60N,143-34.76E,31,12.908,32.5326
862,2018/7/9,14:21,42-06.91N,143-35.02E,31,12.766,32.5114
863,2018/7/9,14:22,42-07.22N,143-35.28E,31,12.83,32.5127
864,2018/7/9,14:23,42-07.54N,143-35.54E,31,12.883,32.5453
865,2018/7/9,14:24,42-07.86N,143-35.80E,31,13.007,32.5898
866,2018/7/9,14:25,42-08.18N,143-36.05E,30,13.041,32.6028
867,2018/7/9,14:26,42-08.50N,143-36.30E,30,13.206,32.5934
868,2018/7/9,14:27,42-08.82N,143-36.54E,29,13.378,32.602
869,2018/7/9,14:28,42-09.14N,143-36.80E,29,13.452,32.6397
870,2018/7/9,14:29,42-09.47N,143-37.04E,28,13.496,32.6655
871,2018/7/9,14:30,42-09.79N,143-37.29E,30,13.52,32.6753
872,2018/7/9,14:31,42-10.11N,143-37.53E,29,13.543,32.6803
873,2018/7/9,14:32,42-10.44N,143-37.78E,29,13.524,32.6833
874,2018/7/9,14:33,42-10.76N,143-38.02E,29,13.564,32.6827
875,2018/7/9,14:34,42-11.09N,143-38.28E,29,13.528,32.6843
876,2018/7/9,14:35,42-11.41N,143-38.53E,29,13.513,32.6816
877,2018/7/9,14:36,42-11.74N,143-38.78E,29,13.481,32.6774
878,2018/7/9,14:37,42-12.06N,143-39.03E,30,13.491,32.678
879,2018/7/9,14:38,42-12.39N,143-39.29E,30,13.561,32.6849
880,2018/7/9,14:39,42-12.72N,143-39.55E,29,13.615,32.6898
881,2018/7/9,14:40,42-13.04N,143-39.80E,29,13.65,32.6936
882,2018/7/9,14:41,42-13.37N,143-40.06E,30,13.684,32.6984
883,2018/7/9,14:42,42-13.70N,143-40.31E,29,13.683,32.7019
884,2018/7/9,14:43,42-14.03N,143-40.58E,30,13.722,32.7051
885,2018/7/9,14:44,42-14.36N,143-40.84E,30,13.662,32.7063
886,2018/7/9,14:45,42-14.68N,143-41.09E,30,13.589,32.7046
887,2018/7/9,14:46,42-15.01N,143-41.35E,30,13.5,32.7006
888,2018/7/9,14:47,42-15.34N,143-41.62E,31,13.553,32.6943
889,2018/7/9,14:48,42-15.67N,143-41.88E,30,13.591,32.6923
890,2018/7/9,14:49,42-16.00N,143-42.15E,30,13.588,32.6899
891,2018/7/9,14:50,42-16.33N,143-42.41E,30,13.548,32.6878
892,2018/7/9,14:51,42-16.65N,143-42.67E,31,13.544,32.685
893,2018/7/9,14:52,42-16.98N,143-42.94E,30,13.532,32.6892
894,2018/7/9,14:53,42-17.31N,143-43.20E,30,13.521,32.6973
895,2018/7/9,14:54,42-17.64N,143-43.46E,29,13.488,32.7006
896,2018/7/9,14:55,42-17.98N,143-43.71E,29,13.473,32.7269
897,2018/7/9,14:56,42-18.31N,143-43.97E,30,13.502,32.7456
898,2018/7/9,14:57,42-18.63N,143-44.22E,29,13.475,32.7484
899,2018/7/9,14:58,42-18.96N,143-44.48E,29,13.507,32.7512
900,2018/7/9,14:59,42-19.29N,143-44.74E,30,13.529,32.7596
901,2018/7/9,15:00,42-19.63N,143-44.99E,29,13.559,32.7591
902,2018/7/9,15:01,42-19.95N,143-45.24E,29,13.552,32.7651
903,2018/7/9,15:02,42-20.28N,143-45.50E,29,13.531,32.7956
904,2018/7/9,15:03,42-20.61N,143-45.75E,29,13.528,32.8186
905,2018/7/9,15:04,42-20.94N,143-46.01E,29,13.561,32.8201
906,2018/7/9,15:05,42-21.27N,143-46.27E,29,13.521,32.8224
907,2018/7/9,15:06,42-21.61N,143-46.53E,30,13.553,32.8202
908,2018/7/9,15:07,42-21.94N,143-46.79E,30,13.526,32.8219
909,2018/7/9,15:08,42-22.27N,143-47.05E,30,13.531,32.8288
910,2018/7/9,15:09,42-22.60N,143-47.31E,29,13.388,32.8356
911,2018/7/9,15:10,42-22.93N,143-47.56E,29,13.362,32.8484
912,2018/7/9,15:11,42-23.27N,143-47.83E,30,13.358,32.865
913,2018/7/9,15:12,42-23.60N,143-48.09E,29,13.465,32.8816
914,2018/7/9,15:13,42-23.93N,143-48.34E,30,13.467,32.9142
915,2018/7/9,15:14,42-24.26N,143-48.60E,29,13.456,32.9307
916,2018/7/9,15:15,42-24.60N,143-48.86E,29,13.429,32.9297
917,2018/7/9,15:16,42-24.93N,143-49.12E,29,13.444,32.927
918,2018/7/9,15:17,42-25.27N,143-49.38E,30,13.462,32.9216
919,2018/7/9,15:18,42-25.59N,143-49.64E,30,13.419,32.9181
920,2018/7/9,15:19,42-25.93N,143-49.87E,25,13.318,32.9074
921,2018/7/9,15:20,42-26.29N,143-50.09E,23,13.424,32.899
922,2018/7/9,15:21,42-26.64N,143-50.29E,22,13.493,32.9005
923,2018/7/9,15:22,42-26.99N,143-50.49E,22,13.457,32.9004
924,2018/7/9,15:23,42-27.34N,143-50.69E,23,13.34,32.8911
925,2018/7/9,15:24,42-27.69N,143-50.89E,23,13.321,32.8599
926,2018/7/9,15:25,42-28.04N,143-51.09E,22,13.444,32.8226
927,2018/7/9,15:26,42-28.40N,143-51.30E,23,13.471,32.8017
928,2018/7/9,15:27,42-28.75N,143-51.50E,22,13.505,32.7844
929,2018/7/9,15:28,42-29.10N,143-51.70E,22,13.489,32.7786
930,2018/7/9,15:29,42-29.45N,143-51.89E,22,13.571,32.7717
931,2018/7/9,15:30,42-29.80N,143-52.10E,23,13.594,32.79
932,2018/7/9,15:31,42-30.15N,143-52.29E,22,13.597,32.8076
933,2018/7/9,15:32,42-30.50N,143-52.50E,23,13.598,32.7941
934,2018/7/9,15:33,42-30.86N,143-52.71E,24,13.615,32.7725
935,2018/7/9,15:34,42-31.20N,143-52.92E,23,13.613,32.7652
936,2018/7/9,15:35,42-31.54N,143-53.12E,23,13.594,32.7696
937,2018/7/9,15:36,42-31.89N,143-53.33E,24,13.64,32.7692
938,2018/7/9,15:37,42-32.23N,143-53.55E,25,13.711,32.7427
939,2018/7/9,15:38,42-32.57N,143-53.77E,24,13.73,32.7427
940,2018/7/9,15:39,42-32.92N,143-53.99E,24,13.705,32.7588
941,2018/7/9,15:40,42-33.26N,143-54.21E,24,13.696,32.7596
942,2018/7/9,15:41,42-33.61N,143-54.42E,24,13.692,32.7639
943,2018/7/9,15:42,42-33.94N,143-54.64E,25,13.674,32.7587
944,2018/7/9,15:43,42-34.28N,143-54.87E,27,13.716,32.7453
945,2018/7/9,15:44,42-34.62N,143-55.11E,28,13.758,32.7269
946,2018/7/9,15:45,42-34.95N,143-55.35E,28,13.707,32.7168
947,2018/7/9,15:46,42-35.28N,143-55.60E,28,13.768,32.6852
948,2018/7/9,15:47,42-35.61N,143-55.85E,28,13.69,32.6918
949,2018/7/9,15:48,42-35.95N,143-56.10E,28,13.679,32.7351
950,2018/7/9,15:49,42-36.28N,143-56.35E,29,13.676,32.7506
951,2018/7/9,15:50,42-36.61N,143-56.60E,28,13.695,32.7529
952,2018/7/9,15:51,42-36.94N,143-56.84E,28,13.704,32.7671
953,2018/7/9,15:52,42-37.27N,143-57.09E,29,13.694,32.775